Hourly Weather Roundup
Issued by NWS Central Illinois

Home | Current Version | Previous Version | Text Only | Print | Product List | Glossary On
Versions: 1 2 3 4 5 6 7 8 9 10 11 12 13 14 15 16 17 18 19 20 21 22 23 24 25 26 27 28 29 30 31 32 33 34 35 36 37 38 39 40 41 42 43 44 45 46 47 48 49 50
000
NZUS43 KILX 271710
HWRILX

AREA WEATHER ROUNDUP
NATIONAL WEATHER SERVICE, LINCOLN IL
1200 PM CDT FRI MAR 27 2015


CITY           SKY/WX    TMP DP  RH WIND       PRES   REMARKS
BLOOMINGTON    MOSUNNY   33  13  44 N16G24    30.16S WCI  22
CHAMPAIGN      FLURRIES  32  21  64 N15       30.14R WCI  22
DECATUR        MOSUNNY   38  13  35 N17G24    30.16S WCI  28
EFFINGHAM      CLOUDY    36  17  46 NW12G21   30.16S WCI  28
FLORA          CLOUDY    36  25  64 N13       30.14S WCI  27
GALESBURG      SUNNY     33  13  43 N13G18    30.21S WCI  24
JACKSONVILLE   PTSUNNY   37  19  47 NW14G20   30.19F WCI  29
LACON          SUNNY     31   7  36 N12G21    30.20S WCI  21
LAWRENCEVILLE  FLURRIES  36  27  69 N15       30.12S WCI  27
LITCHFIELD     CLOUDY    34  19  54 N16G22    30.18R WCI  24
$$


CITY           SKY/WX    TMP DP  RH WIND       PRES   REMARKS
LINCOLN        SUNNY     37  17  44 N12G21    30.18F WCI  29
MACOMB         PTSUNNY   35  17  47 N17G23    30.23F WCI  24
MATTOON        PTSUNNY   34  20  56 N18       30.12S WCI  23
MT CARMEL AP   CLOUDY    37  28  70 N13       30.11S WCI  29
OLNEY-NOBLE AP CLOUDY    36  27  69 N16       30.13F WCI  26
PARIS          CLOUDY    33  26  74 N7G17     30.12S WCI  27
PEORIA         SUNNY     33  11  39 N13G23    30.19F WCI  24
PONTIAC        MOSUNNY   32  15  48 N16G22    30.17S WCI  21
RANTOUL        FLURRIES  31  25  76 N13       30.14S WCI  22
ROBINSON       CLOUDY    35  25  67 N13       30.13S WCI  26
SPRINGFIELD    PTSUNNY   38  17  42 N16G22    30.19S WCI  29
TAYLORVILLE    PTSUNNY   34  21  60 N17       30.17F WCI  23
$$

...REGIONAL REPORTS...


CITY           SKY/WX    TMP DP  RH WIND       PRES   REMARKS
CHICAGO O`HARE MOSUNNY   27   9  46 N15       30.16F WCI  15
KANKAKEE       MOSUNNY   31  14  49 N13       30.16S WCI  21
MOLINE         SUNNY     32   8  36 NE14      30.23S WCI  22
MOUNT VERNON   CLOUDY    36  25  64 N9        30.14S WCI  29
PITTSFIELD     CLOUDY    36  21  54 N13       30.21S WCI  28
QUINCY         CLOUDY    36  23  59 NE9       30.21S WCI  29
ROCKFORD       MOSUNNY   28   6  39 N17       30.21F WCI  16
$$


CITY           SKY/WX    TMP DP  RH WIND       PRES   REMARKS
BURLINGTON     SUNNY     36  14  40 N13G18    30.22S WCI  27
CEDAR RAPIDS   SUNNY     31   7  36 N9G17     30.23F WCI  23
DES MOINES     MOSUNNY   36   8  31 VRB7      30.27S WCI  30
KIRKSVILLE     MOSUNNY   37  15  40 NW14      30.22F WCI  28
OTTUMWA        MOSUNNY   35  13  40 N10G20    30.22F WCI  27
ST LOUIS       FLURRIES  38  23  55 N13       30.19S WCI  30
$$


CITY           SKY/WX    TMP DP  RH WIND       PRES   REMARKS
TERRE HAUTE    CLOUDY    34  23  64 NW8       30.11S WCI  27
EVANSVILLE     CLOUDY    40  28  62 N13G18    30.10R WCI  32
INDIANAPOLIS   CLOUDY    32  16  51 N16G22    30.07R WCI  21
LAFAYETTE      FLURRIES  29  22  75 N7        30.12S WCI  22
MADISON        SUNNY     28   5  37 N14G22    30.20F WCI  17
MILWAUKEE      MOSUNNY   26   9  48 NE15G22   30.18F WCI  14
$$




USA.gov is the U.S. government's official web portal to all federal, state and local government web resources and services.